Regional Weather Roundup
Issued by NWS Sterling, VA

Current Version | Previous Version | Text Only | Print | Product List | Glossary On
Versions: 1 2 3 4 5 6 7 8 9 10 11 12 13 14 15 16 17 18 19 20 21 22 23 24 25 26 27 28 29 30 31 32 33 34 35 36 37 38 39 40 41 42 43 44 45 46 47 48 49 50
000
ASUS41 KLWX 222310
RWRLWX

REGIONAL WEATHER ROUNDUP
NATIONAL WEATHER SERVICE BALTIMORE MD/WASHINGTON DC
600 PM EST SAT NOV 22 2014

Note: "FAIR" indicates few or no clouds below 12,000 feet
with no significant weather and/or obstructions to visibility.
 TC=TEMPERATURE CELSIUS

 * =Non NWS site. Station does not report precipitation (e.g. rain,
    snow, etc.), thunder, or fog.

DCZ001-MDZ009-015-VAZ040>042-051-053>054-230000-
WASHINGTON METRO

CITY           SKY/WX    TMP DP  RH WIND       PRES   REMARKS
WASHINGTON NAT PTCLDY    45  23  42 S9        30.32S
DULLES         PTCLDY    44  16  32 S10       30.29S
ANDREWS AFB    CLEAR     43  16  34 S7        30.30F
FT BELVOIR     CLEAR     44  18  35 S3        30.32F
QUANTICO       CLEAR     46  18  32 SW6       30.34S
COLLEGE PARK*  PTCLDY    46  18  31 CALM      30.30F
LEESBURG*      CLEAR     46  21  36 S7        30.29S
MANASSAS*      CLEAR     43  18  36 S6        30.30F
GAITHERSBURG*  PTCLDY    45  16  31 S5        30.32S

$$

MDZ006>007-011-014-230000-
BALTIMORE METRO

CITY           SKY/WX    TMP DP  RH WIND       PRES   REMARKS
BWI AIRPORT    MOCLDY    45  15  30 S5        30.29F
MD SCIENCE CTR   N/A     48  15  26 MISG      30.30S
MARTIN STATE   PTCLDY    46  27  46 S7        30.31F
ANNAPOLIS      CLOUDY    45  16  31 S7        30.31F
FORT MEADE*    PTCLDY    41  18  38 S3        30.32S

$$

MDZ012-015-019>023-230000-
MARYLAND EASTERN SHORE

CITY           SKY/WX    TMP DP  RH WIND       PRES   REMARKS
OCEAN CITY     CLEAR     39  25  57 SW7       30.36F
SALISBURY      CLEAR     40  24  53 S8        30.35F
BAY BRIDGE AP*   N/A     45  21  39 S7        30.31S
CAMBRIDGE*     CLEAR     41  28  60 S7        30.33F

$$

MDZ017>025-230000-
SOUTHERN MARYLAND

CITY           SKY/WX    TMP DP  RH WIND       PRES   REMARKS
PATUXENT RIVER PTCLDY    44  16  32 S6        30.33F
ST INIGOES     CLEAR     44  19  36 S8        30.34F
LEONARDTOWN*   CLEAR     43  18  36 S3        30.34F

$$

MDZ003>005-230000-
NORTH CENTRAL MARYLAND

CITY           SKY/WX    TMP DP  RH WIND       PRES   REMARKS
FREDERICK*     CLEAR     48  10  21 SW8       30.29F
HAGERSTOWN APT PTCLDY    42  16  34 CALM      30.25S
WESTMINSTER*   NOT AVBL

$$

MDZ501>502-230000-
WESTERN MARYLAND

CITY           SKY/WX    TMP DP  RH WIND       PRES   REMARKS
OAKLAND*       CLOUDY    45  25  45 S9G16     30.18F
CUMBERLAND*    PTCLDY    39  19  45 CALM      30.25F

$$

VAZ025>031-230000-
SHENANDOAH VALLEY

CITY           SKY/WX    TMP DP  RH WIND       PRES   REMARKS
WINCHESTER*    CLEAR     43  12  28 S6        30.24S
FRONT ROYAL*   FAIR      45  19  36 CALM      30.23S
LURAY*         FAIR      50  25  37 SW6       30.24S
NEW MARKET*    MOCLDY    48  20  32 SW10      30.23F
STAUNTON*      CLEAR     44  16  33 S6        30.28S
WAYNESBORO*    FAIR      42  17  35 S7        30.28R

$$

WVZ021-048>050-054>055-230000-
EASTERN WEST VIRGINIA PANHANDLE

CITY           SKY/WX    TMP DP  RH WIND       PRES   REMARKS
MARTINSBURG    CLEAR     42  15  33 CALM      30.24F
PETERSBURG*    MOCLDY    56  17  21 S13       30.21R

$$

VAZ036>039-050-230000-
CENTRAL FOOTHILLS

CITY           SKY/WX    TMP DP  RH WIND       PRES   REMARKS
CHARLOTTESVILL CLEAR     40  18  41 S9        30.31S
CULPEPER*      CLEAR     46  16  29 S8        30.31S
ORANGE*        CLEAR     45  18  33 S7        30.33S
GORDONSVILLE*  FAIR      39  19  43 CALM      30.32S
WARRENTON*     FAIR      45  23  42 S6        30.30S

$$

VAZ055>057-230000-
NORTH AND CENTRAL PIEDMONT

CITY           SKY/WX    TMP DP  RH WIND       PRES   REMARKS
FREDERICKSBRG* CLEAR     45  18  33 S7        30.32S
STAFFORD*      CLEAR     44  10  25 CALM      30.37S

$$

NCZ024-NYZ072-PAZ021-071-VAZ022-071-230000-
OTHER REGIONAL OBSERVATIONS

CITY           SKY/WX    TMP DP  RH WIND       PRES   REMARKS
NEW YORK CITY  CLOUDY    43  17  35 VRB5      30.28R
PHILADELPHIA   CLOUDY    44  20  38 SW13      30.31S
PITTSBURGH     CLOUDY    46  32  58 S6        30.14S
ROANOKE        PTCLDY    45  17  32 SE8       30.32F
RICHMOND       MOCLDY    37  17  44 S7        30.35F
RALEIGH        PTCLDY    42  17  36 CALM      30.37F

$$

ANZ530>537-230000-
MARINE OBSERVATIONS

STATION/POSITION TIME  TEMP    WIND        PRES
                       AIR SEA DIR/SP/G
                 (UTC) (F)     (DEG/KT/KT) (MB)
THOMAS PT LIGHT  2300   47 47  190/ 16/ 18 1027.6F
BALT KEY BRIDGE  2300   47     160/  9/ 12 1025.7S
COVE POINT       2300   45     200/ 10/ 11 1027.1S
LEWISETTA        2300   44 43  200/  3/  5 1027.3F
SOLOMONS ISLAND  2300      48                N/A
PINEY POINT      2300          210/  8/  9   N/A

$$



USA.gov is the U.S. government's official web portal to all federal, state and local government web resources and services.